Showing default

COSMOS 2461 (GLONASS), 36401

Orbit data source: Space-Track

COSMOS 2461 (GLONASS), 36401 is a Commonwealth of Independent States-origin payload satellite in MEO that was launched on Mon, 01 Mar 2010 UTC via a PROTON-M/DM-2 launch vehicle from the Tyuratam Missile And Space Complex (TTMTR). Payload-class satellites include a variety of spacecraft equipped with specific instruments for various scientific and technological missions. These include communications satellites like Starlink; space stations such as the ISS; scientific satellites like the Hubble; Earth observation satellites from companies like Planet Labs, Umbra, and HawkEye 360; GPS; miniature CubeSats for education and research; and military/defense satellites.

Loading next visibility...
Identifier
36401, 2010-007B
Orbit
MEO
Country
Flag of CISCIS
Related business
Manufacturer
Resehetnev ISS
Mission
Non-operational Defense Navigation
Bus & Motor
URAGAN, Unknown motor
Mass
1,450 kg wet, ~1,200 kg dry
Launch date (UTC)
2010-03-01 (17 years ago)
Launch vehicle
PROTON-M/DM-2
Launch site
Tyuratam Missile And Space Complex (TTMTR)
Object type
Payload
Rocket body
Debris
Shape & HBR
Cyl + 1 Ant + 2 Pan, 3.9 m
Radar Cross Section
8.467 m², Large (>1 m²)

Expand to show TLE details & history
Last TLE update: 2 days ago

TLE from 2 days ago
0 COSMOS 2461 (GLONASS)
1 36401U 10007B   26255.31077162 -.00000044  00000-0  00000-0 0  9998
2 36401  65.3803 311.5907 0019775 356.6733 318.6199  2.13106797128676
Epoch: 2026-09-12T07:27Z
TLE epoch observation values (Epoch: 2026-09-12T07:27:30.667Z)
Latitude
-39.98886°
Longitude
-174.15524°
Altitude
19,105.592 km
Speed
3.958 km/s
True Right ascension
19h 16m 10s
True Declination
-39° 56' 29"
Sunlit
Object was in daylight at epoch
Visualization orbit readout
Latitude
Unknown
Longitude
Unknown
Altitude
Unknown
Speed
Unknown
Apparent Right ascension
Unknown
Apparent Declination
Unknown
Sunlit
N/A
Visualization observer readout
Local Sidereal Time
21:02:40
Azimuth
Unknown
Elevation
Unknown
Doppler factor
Unknown
Orbital elements
Apogee altitude
19,179.547 km
Perigee altitude
19,078.666 km
Semi-major axis
25,507.243 km
Eccentricity
0.00198
Inclination
65.3803°
RAAN
311.5907°
Arg. of periapsis
356.6733°
True anomaly
318.46982°
Mean anomaly
318.6199°
Eccentric anomaly
318.54489°
Mean motion
0.53278 °/min
Orbital period
675.7 mins
BSTAR
0
Loading maneuver chart data...
Computing Atmospheric mass density...
Loading historical data...
Loading historical data...
Loading historical data...
Loading historical data...
Loading historical data...
Loading historical data...
Loading historical data...

Documentation

Showing up to 5 results
|